Location: Unspecified
(0.0000°N, 0.0000°E)
Time: 12:12:24
(UTC+00:00)

ISS - Pass Details

Date: 12 December 2019
Orbit: 411 x 421 km, 51.6° (Epoch: 11 December)

Event Time Altitude Azimuth Distance (km) Brightness Sun altitude
Rises 19:08:09 0° 338° (NNW) 2,345 0.0 -17.1°
Reaches altitude 10° 19:10:21 10° 347° (NNW) 1,487 -1.1 -17.6°
Enters shadow 19:10:50 13° 351° (N) 1,312 -1.4 -17.7°
